Wind_Speed
8 16 23 24 26 24 15 13 13 11 11 14 20 26 17 16 17 10 10 7 9 10 6 6 8 14 15 12 16 15 17 18 24 19 25 24 17 20 26 16 14 16 19 21
15 23 19 32 22 24 18 12 14 14 16 16 19 21 20 12 11 5 12 7 9 11 13 8 8 12 11 16 21 19 15 19 17 22 21 23 12 19 21 19 17 19 20 20
18 21 23 15 3 6 6 5 11 14 12 4 12 12 16 14 12 14 14 6 10 14 15 10 15 15 16 17 16 18 21 20 21 23 30 20 11 20 17 20 18 20 19 18
17 22 23 24 11 11 10 8 14 16 17 20 17 8 15 14 14 11 10 9 12 14 17 14 20 20 19 21 20 25 24 23 26 32 14 18 15 17 16 25 27 23 22 19
18 20 27 13 4 6 17 22 20 18 14 27 10 10 8 15 13 15 16 12 13 17 17 19 18 18 21 22 24 23 26 31 30 26 25 16 16 17 20 26 31 31 27 16
22 20 23 19 17 16 23 18 17 18 16 6 7 8 10 14 14 21 16 13 15 17 20 20 18 23 22 20 25 29 32 29 26 26 25 25 22 23 25 27 28 29 23 24
26 24 19 12 18 21 17 12 7 6 6 5 6 6 7 12 14 15 8 13 15 19 19 19 21 21 22 27 27 26 26 30 29 28 26 27 25 24 30 33 36 29 32 26
17 14 11 10 21 15 11 10 3 4 3 5 9 4 1 9 13 8 12 11 16 19 18 15 20 24 30 29 31 32 31 30 30 29 32 32 31 27 23 28 25 22 21 23
8 13 21 22 15 13 10 12 10 8 12 2 4 3 14 15 15 15 15 14 17 16 19 24 26 23 19 26 32 28 29 32 28 33 36 36 34 34 29 24 23 27 22 26
6 19 22 15 15 11 17 14 10 7 2 4 4 6 4 20 15 15 18 21 21 18 24 25 23 24 29 28 27 28 31 30 33 34 38 38 30 32 27 20 20 21 21 28
17 18 21 19 17 14 10 12 6 5 4 3 1 4 5 10 17 20 22 20 16 19 25 27 24 27 25 25 24 29 33 35 36 38 39 38 35 32 30 23 22 22 21 23
13 13 17 13 14 9 9 7 7 3 3 6 4 4 8 15 19 20 22 20 19 28 23 18 24 24 28 28 27 31 35 37 40 41 41 40 38 32 31 28 23 22 20 19
8 9 16 15 8 5 6 5 10 7 4 10 1 3 12 18 21 22 23 22 27 27 17 20 20 24 29 28 27 30 35 41 41 44 40 38 39 30 27 23 20 23 19 16
8 12 17 13 12 14 8 9 6 9 5 5 5 5 10 19 24 20 22 27 23 16 18 19 22 26 29 28 32 36 40 43 40 41 45 37 30 23 20 20 19 21 19 27
7 10 11 13 13 13 11 9 9 10 10 11 12 12 14 12 16 19 20 17 16 18 21 25 27 28 30 32 35 39 41 42 42 39 35 30 27 23 18 20 23 22 24 16
9 6 10 15 6 9 8 10 11 4 7 6 6 11 14 11 15 16 18 17 21 25 25 27 29 31 34 36 40 41 38 36 34 31 29 27 26 25 23 21 20 19 16 10
8 5 8 4 12 14 6 4 6 4 3 4 10 21 16 16 14 15 19 22 21 23 26 28 31 34 37 39 37 37 34 32 30 28 28 27 27 25 24 19 17 15 13 9
8 4 7 9 11 3 4 3 5 9 7 10 15 15 11 16 20 21 23 21 21 22 25 28 34 35 36 34 33 30 29 29 30 28 27 25 24 23 22 18 15 13 10 14
8 7 5 3 10 4 3 5 8 8 5 10 13 12 15 18 19 19 20 20 20 22 27 33 33 33 32 30 32 30 29 30 29 27 26 23 22 21 19 15 15 13 15 16
8 7 7 4 1 2 9 9 6 8 11 12 15 18 18 20 19 21 19 20 24 29 30 32 33 31 28 31 30 29 29 29 28 26 24 21 19 18 17 14 14 11 13 12
8 4 3 5 5 8 5 3 7 8 13 18 20 21 25 23 19 19 21 24 29 29 31 32 30 29 29 31 30 29 30 29 27 24 22 19 19 16 14 12 13 9 10 11
2 2 2 2 2 2 7 7 8 14 14 18 17 17 18 17 17 18 23 24 28 29 27 28 27 27 29 29 28 28 29 26 26 24 22 19 18 15 13 10 11 11 9 11
3 3 3 2 6 8 9 11 18 19 19 18 15 15 16 17 17 20 24 24 25 24 25 25 25 26 27 27 27 29 29 28 26 23 22 20 17 16 14 12 10 11 12 12
4 4 7 9 8 8 13 15 19 21 23 22 21 19 17 19 22 26 27 25 23 23 23 24 24 24 25 26 28 30 30 27 25 23 21 21 19 16 14 12 9 10 10 8
5 5 7 5 9 14 16 16 17 18 21 21 22 20 19 22 27 28 23 21 21 22 22 23 24 22 25 28 29 29 29 30 28 25 24 22 20 16 12 12 8 6 9 5
10 9 9 8 11 13 15 15 16 16 18 18 20 22 25 27 24 18 19 20 20 20 23 23 22 23 26 26 25 27 30 33 33 29 24 21 17 13 13 7 8 6 5 6
Wind_Direction
284 289 278 290 289 281 284 289 274 322 314 242 248 253 254 246 265 297 312 324 345 346 355 7 345 344 354 353 330 326 333 310 295 305 328 323 302 306 289 310 324 322 316 312
286 284 304 305 278 284 279 274 285 318 347 233 256 232 212 251 228 301 306 307 318 330 331 346 341 333 334 320 316 317 325 333 309 320 321 317 262 311 296 308 316 316 314 307
292 298 329 325 265 243 262 356 358 343 19 268 217 241 237 221 225 267 261 237 284 320 320 314 319 318 315 313 312 319 325 330 318 316 307 308 277 292 288 282 294 298 311 313
296 318 323 330 242 227 249 305 321 311 315 308 282 242 243 221 242 221 229 231 273 296 292 298 295 303 310 318 312 326 318 320 315 316 314 304 288 291 272 271 288 295 298 302
307 315 317 316 186 297 315 318 319 322 312 320 283 232 217 215 222 201 204 230 258 262 279 286 295 301 313 311 310 312 308 321 321 316 312 318 303 283 274 272 288 287 291 292
281 302 304 302 304 302 316 312 297 320 319 319 266 234 224 215 215 189 206 254 258 255 275 282 299 307 304 310 308 312 315 317 318 314 313 309 299 285 285 277 283 285 293 268
276 288 309 324 291 306 308 310 325 336 335 253 204 248 253 197 192 210 257 247 245 271 289 299 299 298 305 310 310 310 312 320 324 326 324 323 317 293 281 288 282 271 282 270
274 296 309 310 323 313 311 290 295 228 236 286 211 227 273 188 188 194 233 230 257 274 276 269 271 289 299 310 313 316 319 322 330 329 335 331 326 318 303 284 284 278 275 272
6 319 301 299 313 304 285 284 277 293 274 220 168 194 173 172 186 213 227 241 257 243 264 275 292 292 298 299 301 313 328 335 334 337 338 337 325 316 313 306 283 270 267 264
354 312 305 292 307 297 270 280 264 278 272 270 212 201 202 203 196 205 218 234 238 263 292 291 286 291 297 307 318 321 324 330 335 334 332 336 331 325 322 301 294 284 278 258
300 300 287 301 307 313 281 258 279 266 277 161 226 226 250 198 205 209 224 245 257 280 291 286 281 288 308 321 320 318 323 327 328 322 328 329 328 325 327 305 300 285 276 268
260 303 298 318 311 299 328 297 296 249 275 290 250 219 198 196 210 214 229 249 260 300 307 277 289 306 319 317 313 318 319 319 319 322 322 323 322 317 318 313 299 299 289 271
285 295 299 301 257 316 344 294 280 261 270 285 235 260 222 220 231 228 251 262 292 297 293 294 297 303 308 312 308 308 310 317 319 321 320 315 316 312 314 313 305 309 296 280
289 279 284 275 294 305 285 284 283 252 233 251 234 246 253 242 240 260 269 278 289 272 282 278 283 300 316 312 304 307 312 314 311 312 313 314 314 311 312 314 311 312 297 288
258 293 277 270 279 284 289 279 300 260 265 265 279 280 294 256 240 249 269 277 264 277 280 283 290 303 319 309 306 308 309 308 307 307 308 313 311 310 303 313 312 313 319 288
244 283 289 294 315 336 277 243 271 241 347 303 285 279 281 255 262 264 266 265 274 279 288 296 306 312 315 308 309 310 312 311 310 312 312 311 308 306 319 309 309 316 330 286
255 306 326 312 333 327 315 315 292 232 221 213 294 303 291 271 260 247 266 284 283 284 287 292 304 311 312 313 316 316 316 318 316 317 313 309 308 311 314 315 304 307 323 271
269 306 299 297 329 1 314 252 293 311 265 262 279 287 243 248 255 269 286 280 266 267 280 294 306 310 315 317 318 321 322 319 318 320 317 312 307 306 306 307 291 301 311 322
281 308 284 327 343 288 304 314 295 346 298 286 290 240 257 272 279 284 268 256 269 284 297 306 310 313 319 319 324 329 325 322 322 321 315 314 310 308 306 298 280 290 304 324
258 257 304 315 113 257 289 322 338 318 279 275 277 281 280 290 288 289 278 281 292 302 309 313 314 322 324 327 330 330 328 324 322 322 321 319 315 313 313 304 282 284 306 325
251 283 279 286 251 283 325 308 298 295 310 309 297 286 292 292 294 293 291 298 305 310 316 315 321 327 330 334 333 333 330 326 326 328 327 320 318 322 323 308 288 277 289 314
49 27 7 317 266 319 320 299 278 308 319 323 312 310 311 305 303 299 301 311 313 313 315 317 327 330 334 335 336 338 332 330 333 332 326 317 314 313 312 315 289 265 274 301
22 57 8 351 316 324 329 311 317 321 331 336 331 318 302 298 309 322 319 313 315 318 320 328 332 333 336 337 344 346 341 335 332 333 332 325 317 315 305 306 294 267 250 272
360 38 358 353 331 328 310 316 327 335 334 332 331 326 325 321 317 317 318 323 323 322 328 335 337 341 342 347 350 349 344 341 336 333 331 328 326 326 313 298 285 268 251 258
52 3 358 358 343 330 328 327 331 321 319 323 328 322 311 309 314 314 320 324 324 328 332 339 347 346 352 354 351 347 344 348 345 336 331 326 321 321 325 309 281 260 209 167
34 22 20 15 352 339 328 315 311 306 308 311 312 306 303 307 314 322 328 330 332 334 335 344 347 350 356 353 354 353 353 352 348 344 339 340 340 335 333 299 281 194 211 144
Height
3200 3199 3195 3193 3194 3192 3192 3190 3188 3185 3184 3183 3184 3183 3185 3184 3185 3187 3189 3188 3186 3185 3182 3180 3177 3175 3173 3172 3172 3169 3166 3164 3162 3160 3156 3154 3153 3149 3147 3144 3139 3136 3133 3130
3198 3193 3194 3191 3189 3192 3190 3189 3187 3184 3181 3181 3180 3179 3181 3181 3181 3182 3185 3186 3185 3183 3181 3179 3177 3174 3172 3171 3169 3167 3164 3160 3159 3156 3152 3149 3147 3145 3143 3140 3136 3133 3130 3127
3194 3192 3191 3189 3186 3191 3191 3188 3185 3183 3177 3174 3175 3177 3176 3179 3179 3178 3178 3179 3181 3179 3179 3176 3174 3173 3171 3168 3165 3163 3160 3157 3155 3152 3147 3144 3142 3140 3137 3136 3131 3128 3125 3122
3190 3189 3189 3188 3185 3187 3184 3183 3182 3180 3178 3174 3173 3172 3172 3173 3175 3173 3174 3175 3175 3175 3174 3173 3172 3170 3166 3163 3159 3157 3155 3153 3150 3145 3142 3139 3135 3133 3131 3128 3124 3121 3120 3118
3188 3186 3185 3186 3184 3183 3182 3179 3177 3174 3172 3169 3167 3169 3166 3169 3168 3169 3170 3171 3172 3172 3171 3170 3168 3164 3162 3160 3157 3153 3150 3147 3143 3140 3137 3133 3130 3126 3124 3121 3118 3115 3114 3112
3184 3184 3184 3182 3181 3180 3176 3174 3173 3171 3168 3168 3166 3167 3165 3163 3164 3166 3167 3168 3168 3170 3169 3167 3165 3162 3159 3155 3151 3148 3145 3141 3138 3134 3131 3127 3124 3121 3117 3114 3111 3108 3106 3105
3181 3181 3181 3178 3178 3178 3175 3173 3170 3169 3170 3168 3165 3166 3161 3161 3163 3167 3167 3165 3164 3166 3165 3162 3160 3157 3153 3150 3147 3144 3140 3135 3131 3128 3124 3121 3117 3113 3109 3105 3101 3099 3099 3097
3177 3177 3178 3178 3177 3175 3173 3172 3171 3172 3172 3165 3164 3163 3162 3163 3164 3166 3164 3162 3162 3162 3162 3159 3155 3154 3151 3147 3142 3138 3135 3133 3128 3123 3117 3112 3107 3104 3101 3097 3092 3090 3090 3090
3174 3174 3175 3174 3172 3173 3171 3170 3168 3166 3164 3162 3162 3162 3162 3161 3163 3162 3161 3160 3160 3159 3158 3156 3153 3150 3146 3143 3139 3135 3131 3127 3122 3116 3111 3107 3102 3097 3093 3088 3084 3083 3082 3082
3173 3174 3175 3171 3170 3170 3167 3167 3165 3164 3163 3161 3161 3160 3158 3157 3159 3159 3159 3159 3157 3156 3155 3151 3148 3146 3143 3139 3134 3130 3127 3123 3117 3112 3106 3101 3096 3090 3085 3082 3079 3076 3075 3074
3174 3175 3173 3170 3167 3166 3166 3163 3162 3162 3160 3158 3160 3158 3155 3154 3156 3155 3156 3156 3156 3154 3152 3148 3145 3143 3138 3134 3130 3127 3122 3118 3113 3108 3101 3096 3090 3085 3080 3076 3073 3071 3069 3068
3170 3169 3168 3167 3165 3164 3162 3160 3159 3159 3159 3157 3155 3154 3152 3154 3155 3154 3154 3154 3153 3150 3146 3143 3140 3137 3133 3130 3126 3122 3118 3114 3109 3102 3096 3090 3084 3080 3076 3071 3067 3065 3062 3060
3167 3168 3167 3163 3164 3162 3160 3160 3159 3157 3155 3155 3154 3153 3151 3153 3152 3153 3152 3151 3148 3145 3141 3138 3135 3132 3129 3125 3121 3116 3111 3106 3101 3094 3088 3083 3077 3073 3070 3066 3062 3059 3055 3052
3166 3167 3166 3165 3163 3161 3159 3158 3156 3154 3153 3153 3150 3150 3149 3148 3148 3148 3147 3146 3142 3138 3137 3133 3130 3128 3125 3120 3115 3110 3105 3100 3094 3088 3082 3075 3070 3067 3064 3061 3057 3054 3050 3046
3166 3165 3163 3161 3160 3159 3157 3156 3154 3153 3150 3148 3147 3146 3148 3147 3146 3145 3143 3139 3136 3135 3131 3129 3127 3124 3118 3115 3111 3106 3100 3094 3086 3080 3074 3069 3064 3060 3058 3055 3051 3048 3042 3038
3163 3162 3160 3158 3157 3155 3152 3152 3152 3150 3147 3145 3146 3145 3144 3142 3140 3138 3138 3136 3134 3131 3128 3125 3122 3118 3114 3110 3104 3096 3090 3083 3078 3072 3066 3062 3058 3054 3052 3050 3046 3043 3038 3034
3163 3161 3158 3156 3155 3154 3153 3150 3149 3149 3149 3145 3148 3147 3143 3140 3138 3137 3136 3132 3129 3127 3124 3121 3118 3113 3108 3102 3095 3088 3081 3076 3070 3065 3060 3055 3052 3049 3045 3043 3041 3039 3037 3034
3161 3159 3159 3156 3155 3154 3152 3151 3151 3150 3148 3147 3145 3144 3142 3140 3137 3134 3132 3129 3126 3124 3121 3118 3114 3108 3102 3096 3090 3083 3076 3070 3064 3059 3054 3050 3046 3043 3040 3038 3036 3035 3034 3033
3158 3157 3157 3157 3155 3155 3153 3152 3151 3150 3147 3145 3143 3143 3140 3137 3134 3132 3129 3126 3124 3121 3118 3114 3108 3103 3097 3090 3083 3076 3070 3064 3059 3053 3048 3044 3040 3037 3034 3033 3031 3031 3029 3029
3156 3155 3157 3157 3155 3153 3151 3151 3150 3149 3146 3144 3143 3141 3138 3135 3132 3128 3125 3123 3120 3117 3113 3108 3102 3096 3091 3085 3078 3071 3065 3060 3053 3048 3044 3039 3035 3032 3029 3028 3027 3027 3026 3025
3154 3154 3154 3153 3153 3151 3149 3150 3149 3148 3148 3141 3140 3137 3133 3131 3129 3126 3123 3120 3117 3113 3108 3102 3097 3091 3085 3079 3072 3066 3061 3055 3049 3044 3039 3035 3031 3028 3026 3024 3023 3023 3023 3022
3153 3153 3153 3151 3151 3151 3150 3148 3148 3146 3141 3138 3135 3131 3127 3125 3124 3122 3120 3117 3113 3108 3103 3098 3092 3086 3081 3075 3069 3062 3057 3051 3045 3040 3035 3031 3028 3025 3022 3021 3019 3019 3020 3019
3152 3153 3152 3152 3151 3149 3147 3145 3143 3140 3136 3133 3130 3128 3127 3125 3123 3121 3118 3114 3110 3105 3100 3095 3088 3083 3077 3072 3065 3059 3053 3047 3042 3037 3032 3028 3024 3021 3019 3017 3016 3015 3016 3016
3152 3151 3150 3149 3147 3146 3145 3142 3138 3135 3132 3130 3128 3126 3124 3122 3120 3117 3113 3109 3104 3100 3096 3091 3085 3080 3074 3068 3061 3056 3051 3045 3039 3034 3029 3025 3021 3018 3015 3013 3013 3012 3013 3014
3151 3150 3148 3146 3145 3142 3139 3136 3134 3132 3130 3129 3126 3124 3123 3120 3117 3113 3109 3105 3101 3096 3092 3087 3082 3077 3071 3065 3059 3054 3049 3043 3037 3031 3025 3021 3016 3014 3012 3009 3009 3009 3011 3012
3150 3148 3148 3145 3144 3141 3138 3135 3134 3131 3129 3128 3126 3122 3120 3117 3113 3110 3106 3102 3098 3093 3089 3084 3080 3074 3069 3064 3059 3053 3047 3041 3034 3028 3022 3017 3013 3011 3008 3007 3006 3007 3009 3011